• In Hungary
  • List of Countries
  • For 7 days
  • Water Temperature
  • Satellite Maps
  • Weather Map
  • News
  • Weather Widgets
  • user-avatar
    Login

    Hourly Weather Vetozhetka

    Today, 26 April, Thursday

    Time Temperature Precipitation Wind Pressure Humidity
    00:00 +5°C° 0 mm 2 mps 730 mmHg 87%
    01:00 +5°C° 0 mm 2 mps 730 mmHg 88%
    02:00 +6°C° 0 mm 1 mps 729 mmHg 91%
    03:00 +5°C° 0.4 mm 2 mps 728 mmHg 92%
    04:00 +6°C° 0.4 mm 2 mps 728 mmHg 93%
    05:00 +5°C° 0.4 mm 3 mps 727 mmHg 94%
    06:00 +7°C° 0.4 mm 3 mps 727 mmHg 94%
    07:00 +7°C° 0.4 mm 3 mps 727 mmHg 94%
    08:00 +8°C° 0 mm 3 mps 726 mmHg 93%
    09:00 +7°C° 0.4 mm 4 mps 726 mmHg 90%
    10:00 +8°C° 0.4 mm 5 mps 727 mmHg 87%
    11:00 +8°C° 0.4 mm 6 mps 727 mmHg 83%
    12:00 +8°C° 0.2 mm 6 mps 728 mmHg 82%
    13:00 +7°C° 0.2 mm 6 mps 729 mmHg 82%
    14:00 +5°C° 0.2 mm 6 mps 730 mmHg 81%
    15:00 +7°C° 0.1 mm 5 mps 730 mmHg 77%
    16:00 +8°C° 0.1 mm 5 mps 731 mmHg 74%
    17:00 +8°C° 0.1 mm 5 mps 731 mmHg 70%
    18:00 +7°C° 0 mm 4 mps 732 mmHg 75%
    19:00 +7°C° 0 mm 3 mps 732 mmHg 80%
    20:00 +5°C° 0 mm 3 mps 733 mmHg 86%
    21:00 +4°C° 0 mm 3 mps 734 mmHg 86%
    22:00 +4°C° 0 mm 3 mps 734 mmHg 87%
    23:00 +4°C° 0 mm 3 mps 735 mmHg 88%

    Tomorrow, 27 April, Friday

    Time Temperature Precipitation Wind Pressure Humidity
    00:00 +3°C° 0 mm 3 mps 735 mmHg 90%
    01:00 +4°C° 0 mm 2 mps 735 mmHg 92%
    02:00 +3°C° 0 mm 2 mps 735 mmHg 94%
    03:00 +3°C° 0 mm 2 mps 735 mmHg 95%
    04:00 +3°C° 0 mm 2 mps 735 mmHg 96%
    05:00 +3°C° 0 mm 2 mps 736 mmHg 97%
    06:00 +4°C° 0 mm 2 mps 736 mmHg 91%
    07:00 +5°C° 0 mm 3 mps 736 mmHg 86%
    08:00 +7°C° 0 mm 3 mps 737 mmHg 80%
    09:00 +8°C° 0.2 mm 3 mps 737 mmHg 75%
    10:00 +8°C° 0.2 mm 4 mps 737 mmHg 70%
    11:00 +10°C° 0.2 mm 4 mps 737 mmHg 64%
    12:00 +11°C° 0.2 mm 4 mps 737 mmHg 60%
    13:00 +12°C° 0.2 mm 4 mps 737 mmHg 55%
    14:00 +12°C° 0.2 mm 4 mps 737 mmHg 50%
    15:00 +12°C° 0.2 mm 4 mps 737 mmHg 52%
    16:00 +12°C° 0.2 mm 3 mps 737 mmHg 54%
    17:00 +11°C° 0.2 mm 3 mps 738 mmHg 57%
    18:00 +10°C° 0 mm 3 mps 738 mmHg 65%
    19:00 +8°C° 0 mm 2 mps 738 mmHg 73%
    20:00 +7°C° 0 mm 1 mps 738 mmHg 82%
    21:00 +7°C° 0 mm 1 mps 739 mmHg 84%
    22:00 +6°C° 0 mm 1 mps 739 mmHg 87%
    23:00 +5°C° 0 mm 2 mps 739 mmHg 89%

    Day after tomorrow, 28 April, Saturday

    Time Temperature Precipitation Wind Pressure Humidity
    00:00 +4°C° 0 mm 2 mps 739 mmHg 91%
    01:00 +4°C° 0 mm 2 mps 740 mmHg 93%
    02:00 +3°C° 0 mm 2 mps 740 mmHg 95%
    03:00 +3°C° 0 mm 2 mps 740 mmHg 96%
    04:00 +3°C° 0 mm 2 mps 740 mmHg 96%
    05:00 +3°C° 0 mm 2 mps 741 mmHg 97%
    06:00 +5°C° 0 mm 2 mps 741 mmHg 88%
    07:00 +5°C° 0 mm 3 mps 741 mmHg 79%
    08:00 +8°C° 0 mm 3 mps 741 mmHg 71%
    09:00 +9°C° 0 mm 3 mps 742 mmHg 66%
    10:00 +10°C° 0 mm 4 mps 742 mmHg 61%
    11:00 +11°C° 0 mm 4 mps 742 mmHg 56%
    12:00 +11°C° 0 mm 4 mps 742 mmHg 53%
    13:00 +12°C° 0 mm 4 mps 742 mmHg 51%
    14:00 +12°C° 0 mm 4 mps 742 mmHg 48%
    15:00 +12°C° 0 mm 3 mps 742 mmHg 48%
    16:00 +12°C° 0 mm 3 mps 742 mmHg 49%
    17:00 +12°C° 0 mm 3 mps 742 mmHg 49%
    18:00 +12°C° 0 mm 2 mps 742 mmHg 56%
    19:00 +9°C° 0 mm 2 mps 742 mmHg 63%
    20:00 +8°C° 0 mm 1 mps 742 mmHg 70%
    21:00 +8°C° 0 mm 1 mps 742 mmHg 71%
    22:00 +8°C° 0 mm 1 mps 742 mmHg 73%
    23:00 +6°C° 0 mm 2 mps 742 mmHg 74%

    29 April, Sunday

    Time Temperature Precipitation Wind Pressure Humidity
    00:00 +6°C° 0.1 mm 2 mps 742 mmHg 76%
    01:00 +7°C° 0.1 mm 2 mps 742 mmHg 78%
    02:00 +7°C° 0.1 mm 3 mps 742 mmHg 80%
    03:00 +7°C° 0.6 mm 3 mps 741 mmHg 84%
    04:00 +7°C° 0.6 mm 3 mps 741 mmHg 88%
    05:00 +7°C° 0.6 mm 3 mps 740 mmHg 92%
    06:00 +8°C° 0.1 mm 3 mps 740 mmHg 90%
    07:00 +8°C° 0.1 mm 4 mps 740 mmHg 88%
    08:00 +10°C° 0.1 mm 4 mps 739 mmHg 85%
    09:00 +11°C° 0.1 mm 4 mps 739 mmHg 79%
    10:00 +13°C° 0.1 mm 4 mps 739 mmHg 73%
    11:00 +15°C° 0.1 mm 4 mps 739 mmHg 68%
    12:00 +17°C° 0.1 mm 4 mps 739 mmHg 62%
    13:00 +17°C° 0.1 mm 5 mps 739 mmHg 56%
    14:00 +17°C° 0.1 mm 5 mps 739 mmHg 50%
    15:00 +17°C° 0 mm 5 mps 739 mmHg 50%
    16:00 +18°C° 0 mm 4 mps 740 mmHg 51%
    17:00 +18°C° 0 mm 3 mps 740 mmHg 52%
    18:00 +16°C° 0 mm 3 mps 740 mmHg 61%
    19:00 +14°C° 0 mm 2 mps 740 mmHg 69%
    20:00 +12°C° 0 mm 1 mps 741 mmHg 78%
    21:00 +11°C° 0 mm 1 mps 741 mmHg 83%
    22:00 +10°C° 0 mm 1 mps 741 mmHg 87%
    23:00 +9°C° 0 mm 1 mps 741 mmHg 92%

    30 April, Monday

    Time Temperature Precipitation Wind Pressure Humidity
    00:00 +8°C° 0 mm 1 mps 741 mmHg 93%
    01:00 +8°C° 0 mm 1 mps 741 mmHg 94%
    02:00 +7°C° 0 mm 1 mps 742 mmHg 95%
    03:00 +7°C° 0 mm 1 mps 742 mmHg 95%
    04:00 +7°C° 0 mm 1 mps 742 mmHg 95%
    05:00 +7°C° 0 mm 1 mps 742 mmHg 94%
    06:00 +9°C° 0 mm 1 mps 742 mmHg 82%
    07:00 +11°C° 0 mm 1 mps 742 mmHg 70%
    08:00 +13°C° 0 mm 1 mps 742 mmHg 58%
    09:00 +14°C° 0 mm 1 mps 742 mmHg 52%
    10:00 +16°C° 0 mm 1 mps 742 mmHg 45%
    11:00 +18°C° 0 mm 1 mps 742 mmHg 38%
    12:00 +19°C° 0 mm 1 mps 742 mmHg 37%
    13:00 +20°C° 0 mm 1 mps 742 mmHg 35%
    14:00 +21°C° 0 mm 1 mps 741 mmHg 33%
    15:00 +20°C° 0 mm 1 mps 741 mmHg 37%
    16:00 +19°C° 0 mm 1 mps 741 mmHg 40%
    17:00 +19°C° 0 mm 1 mps 741 mmHg 44%
    18:00 +16°C° 0 mm 1 mps 741 mmHg 48%
    19:00 +15°C° 0 mm 2 mps 741 mmHg 51%
    20:00 +14°C° 0 mm 2 mps 741 mmHg 55%
    21:00 +13°C° 0.1 mm 2 mps 741 mmHg 60%
    22:00 +12°C° 0.1 mm 2 mps 741 mmHg 64%
    23:00 +11°C° 0.1 mm 3 mps 741 mmHg 69%

    1 May, Tuesday

    Time Temperature Precipitation Wind Pressure Humidity
    00:00 +10°C° 0 mm 3 mps 740 mmHg 73%
    01:00 +10°C° 0 mm 3 mps 740 mmHg 78%
    02:00 +9°C° 0 mm 3 mps 740 mmHg 82%
    03:00 +9°C° 0 mm 3 mps 740 mmHg 85%
    04:00 +10°C° 0 mm 3 mps 739 mmHg 88%
    05:00 +10°C° 0 mm 3 mps 739 mmHg 91%
    06:00 +11°C° 0.3 mm 3 mps 739 mmHg 86%
    07:00 +13°C° 0.3 mm 3 mps 739 mmHg 81%
    08:00 +16°C° 0.3 mm 3 mps 739 mmHg 76%
    09:00 +17°C° 0.5 mm 4 mps 739 mmHg 76%
    10:00 +17°C° 0.5 mm 4 mps 739 mmHg 77%
    11:00 +18°C° 0.5 mm 4 mps 739 mmHg 78%
    12:00 +18°C° 0.1 mm 4 mps 740 mmHg 79%
    13:00 +18°C° 0.1 mm 4 mps 740 mmHg 79%
    14:00 +18°C° 0.1 mm 4 mps 741 mmHg 80%
    15:00 +18°C° 0 mm 4 mps 741 mmHg 75%
    16:00 +19°C° 0 mm 3 mps 741 mmHg 70%
    17:00 +19°C° 0 mm 3 mps 742 mmHg 66%
    18:00 +17°C° 0 mm 3 mps 742 mmHg 72%
    19:00 +15°C° 0 mm 2 mps 743 mmHg 78%
    20:00 +13°C° 0 mm 1 mps 743 mmHg 84%
    21:00 +12°C° 0 mm 1 mps 743 mmHg 85%
    22:00 +12°C° 0 mm 1 mps 743 mmHg 85%
    23:00 +11°C° 0 mm 1 mps 744 mmHg 86%
    Show more